User: anonymous   Login
Location: Peebles
(55.6412°N, 3.1714°W)
Time: 23:33:25
(UTC+00:00)
Language:

Oscar 19 - Orbit

View from above orbital plane
View from above orbital plane
View from above satellite
View from above satellite

Ground track
Ground track

The orbit data is extracted from the following two-line orbital elements,

1 20442U 90005G   22336.36515691  .00000120  00000-0  60600-4 0  9997
2 20442  98.8184 303.9870 0012458  40.0822 320.1279 14.33118156717156
Epoch (UTC): 02 December 2022 08:45:49
Eccentricity: 0.0012458
inclination: 98.8184°
perigee height: 772 km
apogee height: 790 km
right ascension of ascending node: 303.9870°
argument of perigee: 40.0822°
revolutions per day: 14.33118156
mean anomaly at epoch: 320.1279°
orbit number at epoch: 71715

The dashed part of the orbit path shows where the satellite is in the earth's shadow,  

DLR